Vorticity
nan nan nan nan nan nan nan nan nan nan nan nan nan nan nan nan nan nan nan nan nan nan nan nan nan nan nan nan nan nan nan nan nan nan nan nan nan nan nan nan nan nan nan
nan 7 5 10 12 10 8 8 9 9 9 9 8 8 8 8 10 9 8 9 10 11 11 8 8 10 9 10 11 10 9 8 7 8 9 10 9 9 11 11 10 11 nan
nan 8 5 8 9 8 8 10 9 10 9 9 9 8 8 9 9 9 9 9 10 9 10 9 11 8 9 10 10 8 9 9 9 9 9 9 11 12 10 10 10 10 nan
nan 15 12 9 9 10 11 10 9 9 10 9 9 10 10 11 9 8 10 9 9 9 9 9 10 9 9 9 11 10 9 9 10 9 8 8 9 9 10 11 11 12 nan
nan 15 13 12 10 11 12 11 10 10 9 10 8 10 11 10 10 11 10 9 9 9 9 9 10 13 10 5 7 12 9 8 7 9 9 10 9 9 9 9 10 10 nan
nan 14 11 10 11 10 10 11 11 9 10 10 10 10 8 10 13 9 5 9 9 9 9 10 11 11 11 11 8 8 8 7 7 8 8 7 8 9 11 9 9 8 nan
nan 11 11 9 13 15 14 11 10 10 10 9 10 11 10 11 13 11 5 4 10 10 9 10 11 12 12 11 10 8 10 8 6 7 7 6 10 9 7 10 10 9 nan
nan 12 9 12 12 9 11 12 14 13 10 10 12 10 10 11 14 10 9 7 9 11 11 11 10 11 11 10 10 10 10 9 8 7 7 8 9 10 9 8 9 9 nan
nan 7 7 8 8 9 8 11 13 13 12 12 12 12 8 10 17 10 9 9 8 11 13 13 11 11 13 10 8 10 9 9 13 11 8 10 11 9 8 7 9 8 nan
nan 6 8 9 8 7 8 10 9 11 14 13 11 13 11 12 16 19 10 9 13 12 12 14 12 10 13 10 7 9 9 12 11 12 12 13 11 12 12 7 8 9 nan
nan 8 6 5 9 11 10 10 8 9 9 13 16 16 16 16 18 26 16 10 16 16 13 10 14 15 8 7 8 7 10 11 11 10 10 11 13 14 12 12 10 9 nan
nan 9 9 8 8 9 10 9 10 10 12 13 14 14 15 17 14 12 10 10 13 11 10 13 15 14 10 12 10 8 9 8 10 10 10 10 10 12 12 13 13 11 nan
nan 9 10 9 9 10 10 8 8 10 11 14 17 11 8 9 11 3 -4 6 2 3 7 11 12 12 16 14 11 15 13 8 11 10 10 12 11 11 11 13 15 14 nan
nan 7 7 9 9 10 11 10 9 9 10 13 14 11 10 8 4 3 0 -1 6 16 8 5 15 12 8 10 14 13 12 13 12 11 12 11 12 12 12 12 11 11 nan
nan 10 10 11 10 10 10 9 10 8 7 8 9 10 9 7 11 3 7 10 15 21 13 8 9 13 8 7 10 13 13 12 11 12 13 11 11 11 11 11 12 12 nan
nan 8 11 11 11 11 9 13 14 9 7 9 9 6 9 8 10 17 20 14 19 17 10 10 9 13 14 13 10 10 13 13 12 11 11 11 11 12 11 12 12 12 nan
nan 8 10 11 10 10 10 8 11 18 13 9 20 21 12 11 20 21 15 17 12 3 7 12 13 13 12 13 13 12 11 9 10 12 11 11 12 11 10 11 12 11 nan
nan 14 9 9 10 10 10 10 9 8 11 11 13 23 20 19 20 15 3 2 3 9 15 15 13 12 12 13 12 12 10 10 9 10 9 11 11 11 10 10 11 13 nan
nan 14 11 9 11 10 10 10 9 11 10 11 7 10 14 14 11 8 4 8 11 10 12 13 14 12 12 11 10 10 11 10 11 10 10 11 10 11 10 11 11 11 nan
nan 13 8 9 10 10 10 10 10 10 12 14 11 11 9 9 10 9 14 13 12 12 12 11 10 11 12 12 10 10 10 10 11 11 10 9 10 11 11 11 11 10 nan
nan 14 11 8 10 10 10 10 10 11 13 13 14 15 10 10 12 12 13 13 12 12 11 10 11 11 11 11 11 12 10 10 10 10 10 11 12 12 11 11 11 10 nan
nan 10 11 10 10 11 10 10 12 11 13 13 13 16 13 10 12 11 11 11 12 13 13 11 11 11 12 12 11 10 10 10 10 10 11 12 12 10 10 10 10 10 nan
nan 10 9 11 11 10 10 11 12 13 13 13 12 13 13 12 12 13 11 11 11 11 11 12 11 12 12 11 11 12 11 9 10 12 11 11 11 11 11 11 11 11 nan
nan 12 11 10 11 12 12 12 14 15 12 12 11 11 14 12 12 12 10 10 11 11 13 12 12 13 11 12 13 13 13 12 10 11 11 11 12 11 11 10 10 10 nan
nan 12 12 11 12 13 12 14 16 14 12 12 11 12 13 12 11 10 10 11 11 11 12 11 13 13 13 11 11 11 10 12 13 12 11 10 10 10 10 11 11 9 nan
nan nan nan nan nan nan nan nan nan nan nan nan nan nan nan nan nan nan nan nan nan nan nan nan nan nan nan nan nan nan nan nan nan nan nan nan nan nan nan nan nan nan nan
CAPE
1468 1355 1288 1172 1257 1081 1009 963 918 686 701 802 841 678 636 752 1017 1398 1352 1311 877 1002 1043 717 837 631 546 303 210 243 121 162 165 299 66 83 58 131 139 133 65 122 105
45 1220 150 800 1119 1575 1818 1633 1089 1210 1184 1167 1101 1101 1113 1103 1175 1098 1291 1394 1307 1115 992 817 804 825 613 573 438 432 390 246 458 542 448 396 272 267 124 296 171 205 83
1458 1580 1381 1349 1239 1102 1378 1532 2004 1832 1500 1288 1282 1304 1404 1414 1341 1342 1510 1484 1410 1268 1035 1251 930 1041 826 893 681 594 540 554 555 768 429 427 722 249 234 216 191 367 460
1029 2029 1905 1876 1755 1537 1269 1338 1217 1378 1759 1854 1665 1562 1372 1474 1621 1727 1771 1713 1361 1297 1321 1474 1477 1122 1427 1203 786 1031 945 944 688 600 315 375 590 644 287 530 414 132 293
237 1230 2349 2403 2351 2318 2287 2237 1993 1810 1728 1544 1788 1597 1644 1618 1770 1720 1737 1861 1603 1608 1647 1721 1812 1360 1311 1374 1093 1188 1105 1058 813 272 216 434 736 641 693 367 348 250 187
2080 2490 2674 2609 2581 2671 2578 2318 2458 2508 2490 2082 1796 2008 1681 2008 1980 1655 1692 1941 1935 1975 1997 1903 1959 1352 1388 1089 1005 920 976 1182 1106 721 540 542 974 724 394 496 395 403 532
2027 2186 2056 1528 1822 2317 2617 2773 2752 2691 2541 2240 2135 1797 1952 2066 1977 1772 1378 2310 2370 2303 2184 2114 1771 1727 1397 1366 697 466 487 562 933 1152 1199 1145 1089 775 519 517 342 405 461
1277 1295 1559 1628 1686 1880 2020 2049 2601 2843 2550 2376 2560 2162 2197 2185 1909 1563 1241 2033 2474 2580 2379 2085 2035 2041 1630 1492 1461 1180 1071 902 592 753 1131 1367 1162 1063 607 623 382 299 377
735 676 782 1179 1227 1212 1053 1596 2172 2134 2516 2201 2624 2600 2507 2604 1719 1313 853 1781 2269 2614 2271 1993 1893 1917 1363 960 1383 1261 1133 961 503 265 399 544 461 306 422 274 394 263 286
656 693 652 687 678 602 571 1158 1776 1944 2355 2310 2432 2468 2399 2607 2185 870 563 2057 2478 2477 2218 2071 1430 1449 1027 609 1295 1448 1320 1265 1152 1270 691 164 25 9 0 263 628 467 85
548 470 370 373 334 297 573 1101 971 1209 1710 2584 2423 2469 2544 2132 751 1 5 1682 1623 2158 2138 1633 1613 902 891 306 399 1200 1240 1192 781 929 916 795 545 386 189 2 25 481 335
301 223 187 166 216 452 484 559 741 990 1312 2144 2809 1189 367 60 0 0 0 0 0 123 514 935 1087 746 643 247 2 81 103 35 439 576 616 614 484 423 371 271 56 126 401
156 66 8 52 162 234 343 418 359 326 614 1187 2401 446 72 12 1 0 0 0 0 0 4 18 9 1 1 1 1 1 1 2 139 324 496 324 219 219 146 130 108 120 86
95 43 2 4 0 5 151 281 6 0 118 729 759 309 168 99 93 48 17 265 17 0 0 0 11 1 0 2 6 4 4 15 62 96 137 129 104 78 46 1 59 15 105
152 105 29 0 0 0 252 219 0 1 1 120 685 433 351 400 514 286 94 294 60 10 0 3 29 103 91 123 133 52 13 78 57 40 40 29 3 9 1 1 3 1 24
289 158 34 0 0 14 87 2 0 0 1 1 2 1 439 620 317 269 38 1 3 0 134 170 239 237 182 159 141 54 20 6 3 3 2 0 0 1 0 0 1 1 0
195 472 103 0 0 0 16 2 2 0 1 1 2 2 1 15 1 2 1 1 0 125 365 300 212 89 3 32 44 24 4 3 0 0 0 0 0 0 0 0 0 0 0
153 228 171 31 7 5 1 1 2 1 14 101 1 0 2 2 0 0 2 1 1 37 55 32 15 2 2 1 0 0 0 0 0 0 0 0 0 0 0 0 0 0 0
166 259 134 102 51 45 13 1 2 2 1 5 3 0 0 2 1 2 2 255 118 5 2 2 0 0 0 0 0 0 0 0 0 0 0 0 0 0 0 0 0 0 0
211 200 99 139 120 81 107 70 4 3 4 0 1 0 1 0 1 4 146 146 4 1 1 0 0 0 0 0 0 0 0 0 0 0 0 0 0 0 0 0 0 0 0
220 239 89 81 127 161 190 101 11 126 123 0 2 0 0 1 2 1 0 0 0 1 0 0 0 0 0 0 0 0 0 0 0 0 0 0 0 0 0 0 0 0 0
76 166 200 189 186 166 145 84 93 244 133 1 1 0 1 1 1 0 0 0 0 0 0 0 0 0 0 0 0 0 0 0 0 0 0 0 0 0 0 0 0 0 0
58 109 108 65 104 72 110 161 109 161 10 1 1 1 2 1 1 0 0 0 0 0 0 0 0 0 0 0 0 0 0 0 0 0 0 0 0 0 0 0 0 0 0
54 17 4 5 22 79 89 169 175 65 2 2 1 2 1 0 0 0 0 0 0 0 0 0 0 0 0 0 0 0 0 0 0 0 0 0 0 0 0 0 0 0 0
53 52 19 2 10 22 71 214 145 0 2 2 2 3 3 7 2 0 0 0 0 0 0 0 0 0 0 0 0 0 0 0 0 0 0 0 0 0 0 0 0 0 0
4 26 20 22 40 45 22 59 1 1 2 1 2 3 3 1 0 0 0 0 0 0 0 0 0 0 0 0 0 0 0 0 0 0 0 0 0 0 0 0 0 0 0